Other Public Products
Issued by NWS Grand Forks, ND

Home | Current Version | Previous Version | Text Only | Print | Product List | Glossary On
Versions: 1 2 3 4 5 6 7 8 9 10 11 12 13 14 15 16 17 18 19 20 21 22 23 24 25 26 27 28 29 30 31 32 33 34 35 36 37 38 39 40 41 42 43 44 45 46 47 48 49 50
739
FPUS83 KFGF 231631
OPUFGF
PRAIRIE TO PINES WEATHER ROUNDUP
NATIONAL WEATHER SERVICE EASTERN NORTH DAKOTA/GRAND FORKS ND
1100 AM CDT SUN APR 23 2017

 **SATELLITE DATA USED TO AUGMENT SKY COVER AT AUTOMATED STATIONS**
 *****  WEATHER ACROSS EASTERN NORTH DAKOTA  *****

CITY           SKY/WX    TMP DP  RH WIND       PRES   REMARKS
GRAND FORKS    CLOUDY    36  24  62 E16       30.20F
GRAND FORKS AF LGT SNOW  33  24  68 E13       30.19F WCI  24
GRAND CITY NWS NOT AVBL
BUXTON           N/A     33  33  98 E8          N/A
DEVILS LAKE    LGT SNOW  28  27  93 E20G26    30.15S FOG     WCI  15
FARGO          CLOUDY    37  32  82 NE14      30.13F
WAHPETON ARPT  CLOUDY    45  34  65 E13G18    30.07F
$$

 *****  WEATHER ACROSS CENTRAL AND WESTERN NORTH DAKOTA  *****

CITY           SKY/WX    TMP DP  RH WIND       PRES   REMARKS
JAMESTOWN      CLOUDY    32  30  92 E20       30.07F WCI  20
BISMARCK       CLOUDY    37  31  78 E25G31    30.01F
MINOT          SNOW      30  26  85 E13       30.08F VSB 1/2 WCI  20
MINOT AFB      MIX PCPN  28  27  93 E23       30.08F FOG     WCI  14
GARRISON         N/A     28  25  88 E20       30.04F WCI  15
WILLISTON      CLOUDY    31  24  75 SE15      30.01F WCI  20
DICKINSON      CLOUDY    30  26  85 E20       29.92F WCI  17
HETTINGER      CLOUDY    34  31  88 E15       29.91F WCI  24
$$

 *****  OTHER OBSERVATIONS NORTHEAST NORTH DAKOTA  *****

CITY           SKY/WX    TMP DP  RH WIND       PRES   REMARKS
WALHALLA       NOT AVBL
LANGDON        PTSUNNY   34  14  44 E21G28    30.16F WCI  22
CAVALIER       FAIR      34  14  44 E12G18    30.22F
GRAFTON        FAIR      36  14  41 E16       30.24R
CANDO          NOT AVBL
FORT TOTTEN      N/A     29  27  94 E9        29.95S WCI  20
ROLLA          FAIR      30   9  40 E21G26    30.15S WCI  17
RUGBY          NOT AVBL
 ***** THE ABOVE OBSERVATIONS ARE NON NWS ARE NOT QUALITY
        CONTROLLED AND MAY MIS-REPORT RAIN FOR SNOW...
$$

 *****  OTHER OBSERVATIONS SOUTHEAST NORTH DAKOTA *****

CITY           SKY/WX    TMP DP  RH WIND       PRES   REMARKS
COOPERSTOWN    CLOUDY    30  28  93 E22       30.12F WCI  17
VALLEY CITY    FLURRIES  32  32 100 E18G28    30.09F WCI  20
OAKES          NOT AVBL
GWINNER        CLOUDY    41  37  87 MISG      30.05F
SHEYENNE NWR     N/A     40  33  77 E14       29.95S
BUFFALO          N/A     33  30  88 S20         N/A  WCI  21
WYNDMERE         N/A     45  37  76 E14         N/A
 ***** THE ABOVE OBSERVATIONS ARE NON NWS ARE NOT QUALITY
       CONTROLLED AND MAY MIS-REPORT RAIN FOR SNOW...
$$

  *****  WEATHER ACROSS NORTHERN MINNESOTA  *****

CITY           SKY/WX    TMP DP  RH WIND       PRES   REMARKS
FLAG ISLAND    FAIR      30   9  40 E3G9      30.26S
WARROAD        FAIR      30  16  55 NE8       30.26S WCI  23
ROSEAU         FAIR      34  16  47 NE16      30.23F WCI  23
HALLOCK        FAIR      36  16  44 E15G21    30.22F
THF RVR FALLS  PTSUNNY   32   6  33 E20       30.21  WCI  20
HALSTAD          N/A     32  27  81 E17         N/A  WCI  20
FOSSTON        LGT SNOW  30  27  86 E8        30.18S WCI  23
BAUDETTE       FAIR      32  11  41 E6        30.24S
WASKISH        CLOUDY    32  23  69 E10       30.21F WCI  24
CROOKSTON      PTSUNNY   34  23  64 E14       30.20F WCI  24
$$
  *****  WEATHER ACROSS CENTRAL AND WEST MINNESOTA  *****

CITY           SKY/WX    TMP DP  RH WIND       PRES   REMARKS
BEMIDJI        LGT SNOW  32  24  73 E10       30.18R WCI  24
PARK RAPIDS    CLOUDY    34  28  79 E9        30.14S
WADENA         CLOUDY    37  32  81 E13G23    30.11S
DETROIT LAKES  CLOUDY    36  32  87 E15       30.12S
MOORHEAD       CLOUDY    37  32  81 NE15      30.12F
FERGUS FALLS   PTSUNNY   45  36  70 E13G22    30.07F
ELBOW LAKE     FAIR      48  38  69 SE17G23   30.05F
MORRIS MN      FAIR      54  43  66 E17       30.03F
STAPLES        CLOUDY    39  32  75 NE8       30.12S
WHEATON        PTSUNNY   52  39  62 E16       30.05F
$$
  *****  WEATHER ELSEWHERE ACROSS MINNESOTA  *****

CITY           SKY/WX    TMP DP  RH WIND       PRES   REMARKS
DULUTH         LGT SNOW  33  31  92 E14       30.16F FOG     WCI  23
INTRNTL FALLS  FAIR      32  13  45 NE7       30.24S
ELY            FAIR      30  19  64 N5        30.20F
CLOQUET        SNOW      34  30  86 E10       30.18R VSB 1/2
BRAINERD       CLOUDY    36  31  82 E8        30.15F
HIBBING        CLOUDY    32  23  69 E9        30.19S WCI  24
ALEXANDRIA     CLOUDY    45  37  73 E15       30.08F
SAINT CLOUD    CLOUDY    46  39  76 E13G22    30.10F
MINNEAPOLIS    FAIR      57  41  55 VRB7      30.08F
$$

  *****  WEATHER ACROSS SOUTH DAKOTA  *****

CITY           SKY/WX    TMP DP  RH WIND       PRES   REMARKS
SIOUX FALLS    FAIR      62  38  40 SW14G21   30.03F
BROOKINGS      FAIR      63  35  35 SW17G24   30.00F
WATERTOWN      FAIR      57  37  47 SW7       29.99F
HURON          FAIR      59  40  49 VRB3      29.96F
SISSETON         N/A     50  42  74 SE10      30.03F
ABERDEEN       FAIR      50  38  63 E15       29.98F
MITCHELL       FAIR      64  35  34 SW18      29.99F
PIERRE         FAIR      61  36  39 S12       29.85F
MOBRIDGE       FAIR      44  34  67 E23       29.89F
RAPID CITY     FAIR      56  38  50 SW5       29.80F
$$

  *****  SOME WEATHER IN NEARBY STATES *****

CITY           SKY/WX    TMP DP  RH WIND       PRES   REMARKS
GLASGOW MT     CLOUDY    36  31  82 E18       29.88F
GREAT FALLS MT LGT RAIN  43  40  89 W8        29.79S
CHEYENNE WY    FAIR      55  29  36 S15       29.95F
SCOTTSBLUFF NE FAIR      57  36  45 MISG      29.90F
OMAHA NE       FAIR      64  29  26 SW10      30.14F
DES MOINES IA  FAIR      66  31  27 VRB3      30.14F
DAVENPORT IA   FAIR      64  31  28 W5        30.14F
CHICAGO IL     FAIR      65  27  23 N7        30.12F
EAU CLAIRE WI  FAIR      55  40  56 NE7       30.09S
LA CROSSE WI   FAIR      67  38  34 CALM      30.08F
$$

  *****  SOME NATIONAL WEATHER *****

CITY           SKY/WX    TMP DP  RH WIND       PRES   REMARKS
LA GUARDIA NY  FAIR      59  37  44 NW3       30.12F
RALEIGH NC     LGT RAIN  55  52  89 NE12      30.04F
ATLANTA GA     RAIN      64  63  96 SE9       29.82S FOG
NEW ORLEANS LA CLOUDY    62  56  80 NW12G20   29.95R
OKLAHOMA CITY  FAIR      61  40  45 VRB3      30.20S
ALBUQUERQUE NM FAIR      54  30  40 VRB3      30.21F
SALT LAKE CITY FAIR      58  38  47 NW9       29.85S
LOS ANGELES CA FAIR      65  55  70 VRB3      29.88S
BOISE ID       PTSUNNY   52  42  69 W5        29.86S
SEATTLE WA     CLOUDY    51  44  77 SE7       29.90S
$$

*** WEATHER ACROSS MANITOBA...SASKATCHEWAN AND ONTARIO ***
                ***ONTARIO***

CITY           SKY/WX    TMP DP  RH WIND       PRES   REMARKS
GERALDTON      PTSUNNY   23   9  54 W3        30.20F
THUNDER BAY    PTSUNNY   36  14  41 N6        30.24S
SIOUX LOOKOUT  PTSUNNY   27   3  36 NW9       30.25S WCI  17
TORONTO        MOSUNNY   61  30  31 W10G17    30.08F
BIG TROUT LK   PTSUNNY   14   3  62 NW12G18   30.25S WCI   0
PICKLE LAKE    PTSUNNY   19   5  53 W9G17     30.23F WCI   9
DRYDEN         SUNNY     28   7  40 NE7       30.24S WCI  21
KENORA         PTSUNNY   28   7  40 E6        30.25S WCI  22
$$
                *** MANITOBA***

CITY           SKY/WX    TMP DP  RH WIND       PRES   REMARKS
BRANDON        PTSUNNY   34  12  40 SE14G21   30.21F WCI  24
DAUPHIN        SUNNY     36  19  51 N3        30.23F
ISLAND LAKE    MOSUNNY   18   0  45 W6        30.30F WCI   9
PILOT MOUND      N/A     34  10  37 E18G25      N/A  WCI  23
THE PAS        MOSUNNY   25   7  46 N12       30.30S WCI  14
THOMPSON       MOSUNNY   14  -4  44 W6        30.31F WCI   5
WINNIPEG       PTSUNNY   34  16  47 E9        30.26F
LYNN LAKE      SUNNY     14   0  52 N3        30.28F
CHURCHILL      MOSUNNY    0  -6  78 NW15      30.33S WCI -20
GILLAM         PTSUNNY   10  -8  44 NW9       30.33S WCI  -2
$$
                ***SASKATCHEWAN***

CITY           SKY/WX    TMP DP  RH WIND       PRES   REMARKS
ESTEVAN        CLOUDY    30  16  55 E18G32    30.07F WCI  18
KINDERSLEY     FLURRIES  36  32  87 E21G28    29.89F
LLOYDMINSTER   CLOUDY    36  23  60 E22G29    29.97F
PRINCE ALBERT  CLOUDY    32  19  59 E12       30.14F WCI  23
REGINA         CLOUDY    34  21  60 SE21G28   30.06F WCI  22
YORKTON        CLOUDY    36  16  44 S14       30.16F



USA.gov is the U.S. government's official web portal to all federal, state and local government web resources and services.